Time,TemperatureF,DewpointF,PressureIn,WindDirection,WindDirectionDegrees,WindSpeedMPH,WindSpeedGustMPH,Humidity,HourlyPrecipIn,Conditions,Clouds,dailyrainin,SoftwareType,DateUTC
2013-08-06 00:00:00,70.2,59.5,29.99,SW,225,0.4,0.4,69,0.00,,,0.00,WUHU216HW,2013-08-06 04:00:00,
2013-08-06 00:01:00,70.2,59.5,29.99,SW,225,0.4,0.4,69,0.00,,,0.00,WUHU216HW,2013-08-06 04:01:00,
2013-08-06 00:06:00,70.0,59.3,30.00,SW,225,0.0,0.4,69,0.00,,,0.00,WUHU216HW,2013-08-06 04:06:00,
2013-08-06 00:11:00,69.8,59.1,30.00,SW,225,0.0,0.7,69,0.00,,,0.00,WUHU216HW,2013-08-06 04:11:00,
2013-08-06 00:16:00,69.8,59.1,30.00,SW,225,0.4,0.7,69,0.00,,,0.00,WUHU216HW,2013-08-06 04:16:00,
2013-08-06 00:21:00,69.5,58.9,30.00,SW,225,0.4,0.4,69,0.00,,,0.00,WUHU216HW,2013-08-06 04:21:00,
2013-08-06 00:26:00,69.5,58.9,30.00,SW,225,0.0,0.4,69,0.00,,,0.00,WUHU216HW,2013-08-06 04:26:00,
2013-08-06 00:31:00,69.5,58.9,30.00,SW,225,0.0,0.0,69,0.00,,,0.00,WUHU216HW,2013-08-06 04:31:00,
2013-08-06 00:36:00,69.3,58.7,30.00,SW,225,0.0,0.4,69,0.00,,,0.00,WUHU216HW,2013-08-06 04:36:00,
2013-08-06 00:41:00,69.1,58.5,30.00,SW,225,0.0,0.4,69,0.00,,,0.00,WUHU216HW,2013-08-06 04:41:00,
2013-08-06 00:46:00,69.1,58.5,30.00,SW,225,0.0,0.4,69,0.00,,,0.00,WUHU216HW,2013-08-06 04:46:00,
2013-08-06 00:51:00,68.8,58.1,30.00,SW,225,0.0,0.4,69,0.00,,,0.00,WUHU216HW,2013-08-06 04:51:00,
2013-08-06 00:56:00,68.8,58.6,29.99,SW,225,0.0,0.0,70,0.00,,,0.00,WUHU216HW,2013-08-06 04:56:00,
2013-08-06 01:01:00,68.6,58.4,29.99,SW,225,0.2,0.2,70,0.00,,,0.00,WUHU216HW,2013-08-06 05:01:00,
2013-08-06 01:06:00,68.4,58.3,29.99,SW,225,0.2,0.4,70,0.00,,,0.00,WUHU216HW,2013-08-06 05:06:00,
2013-08-06 01:11:00,68.4,58.3,30.00,SW,225,0.0,0.4,70,0.00,,,0.00,WUHU216HW,2013-08-06 05:11:00,
2013-08-06 01:16:00,68.2,58.2,30.00,SW,225,0.0,0.4,70,0.00,,,0.00,WUHU216HW,2013-08-06 05:16:00,
2013-08-06 01:21:00,68.0,58.0,30.00,SW,225,0.0,0.0,70,0.00,,,0.00,WUHU216HW,2013-08-06 05:21:00,
2013-08-06 01:26:00,68.0,58.0,30.00,SW,225,0.0,0.0,70,0.00,,,0.00,WUHU216HW,2013-08-06 05:26:00,
2013-08-06 01:31:00,67.9,57.8,30.00,SW,225,0.0,0.0,70,0.00,,,0.00,WUHU216HW,2013-08-06 05:31:00,
2013-08-06 01:36:00,67.7,58.0,30.00,SW,225,0.0,0.0,71,0.00,,,0.00,WUHU216HW,2013-08-06 05:36:00,
2013-08-06 01:41:00,67.7,58.0,30.00,SW,225,0.0,0.0,71,0.00,,,0.00,WUHU216HW,2013-08-06 05:41:00,
2013-08-06 01:46:00,67.5,57.8,30.00,SW,225,0.2,0.7,71,0.00,,,0.00,WUHU216HW,2013-08-06 05:46:00,
2013-08-06 01:51:00,67.5,57.8,30.00,SW,225,0.0,0.7,71,0.00,,,0.00,WUHU216HW,2013-08-06 05:51:00,
2013-08-06 01:56:00,67.3,57.6,30.00,SW,225,0.0,0.4,71,0.00,,,0.00,WUHU216HW,2013-08-06 05:56:00,
2013-08-06 02:01:00,67.3,57.6,30.00,SW,225,0.0,0.4,71,0.00,,,0.00,WUHU216HW,2013-08-06 06:01:00,
2013-08-06 02:06:00,67.1,57.8,30.00,SW,225,0.0,0.4,72,0.00,,,0.00,WUHU216HW,2013-08-06 06:06:00,
2013-08-06 02:11:00,67.1,57.8,30.00,SW,225,0.0,0.0,72,0.00,,,0.00,WUHU216HW,2013-08-06 06:11:00,
2013-08-06 02:16:00,67.0,57.6,30.00,SW,225,0.0,0.0,72,0.00,,,0.00,WUHU216HW,2013-08-06 06:16:00,
2013-08-06 02:21:00,67.0,57.6,30.00,SW,225,0.0,0.0,72,0.00,,,0.00,WUHU216HW,2013-08-06 06:21:00,
2013-08-06 02:26:00,66.8,57.4,30.00,SW,225,0.0,0.0,72,0.00,,,0.00,WUHU216HW,2013-08-06 06:26:00,
2013-08-06 02:31:00,66.8,57.9,30.00,SW,225,0.0,0.0,73,0.00,,,0.00,WUHU216HW,2013-08-06 06:31:00,
2013-08-06 02:36:00,66.6,57.7,30.00,SW,225,0.0,0.0,73,0.00,,,0.00,WUHU216HW,2013-08-06 06:36:00,
2013-08-06 02:41:00,66.6,57.7,30.00,SW,225,0.0,0.0,73,0.00,,,0.00,WUHU216HW,2013-08-06 06:41:00,
2013-08-06 02:46:00,66.6,57.7,30.00,SW,225,0.0,0.0,73,0.00,,,0.00,WUHU216HW,2013-08-06 06:46:00,
2013-08-06 02:51:00,66.6,57.7,30.00,SW,225,0.0,0.0,73,0.00,,,0.00,WUHU216HW,2013-08-06 06:51:00,
2013-08-06 02:56:00,66.4,57.5,30.00,SW,225,0.0,0.0,73,0.00,,,0.00,WUHU216HW,2013-08-06 06:56:00,
2013-08-06 03:01:00,66.2,57.3,30.00,SW,225,0.0,0.0,73,0.00,,,0.00,WUHU216HW,2013-08-06 07:01:00,
2013-08-06 03:06:00,66.2,57.3,30.00,SW,225,0.0,0.0,73,0.00,,,0.00,WUHU216HW,2013-08-06 07:06:00,
2013-08-06 03:11:00,66.2,57.3,30.00,SW,225,0.0,0.0,73,0.00,,,0.00,WUHU216HW,2013-08-06 07:11:00,
2013-08-06 03:16:00,66.2,57.7,30.00,SW,225,0.0,0.0,74,0.00,,,0.00,WUHU216HW,2013-08-06 07:16:00,
2013-08-06 03:21:00,66.1,57.5,30.00,SW,225,0.0,0.0,74,0.00,,,0.00,WUHU216HW,2013-08-06 07:21:00,
2013-08-06 03:26:00,66.1,57.5,30.00,SW,225,0.0,0.0,74,0.00,,,0.00,WUHU216HW,2013-08-06 07:26:00,
2013-08-06 03:31:00,66.1,57.5,30.00,SW,225,0.0,0.0,74,0.00,,,0.00,WUHU216HW,2013-08-06 07:31:00,
2013-08-06 03:36:00,65.9,57.3,30.00,SW,225,0.0,0.0,74,0.00,,,0.00,WUHU216HW,2013-08-06 07:36:00,
2013-08-06 03:41:00,65.9,57.3,30.00,SW,225,0.0,0.2,74,0.00,,,0.00,WUHU216HW,2013-08-06 07:41:00,
2013-08-06 03:46:00,65.9,57.3,30.00,SW,225,0.0,0.2,74,0.00,,,0.00,WUHU216HW,2013-08-06 07:46:00,
2013-08-06 03:51:00,65.7,57.2,30.00,SW,225,0.0,0.0,74,0.00,,,0.00,WUHU216HW,2013-08-06 07:51:00,
2013-08-06 03:56:00,65.5,57.0,30.00,SW,225,0.0,0.0,74,0.00,,,0.00,WUHU216HW,2013-08-06 07:56:00,
2013-08-06 04:01:00,65.5,57.0,30.00,SW,225,0.0,0.0,74,0.00,,,0.00,WUHU216HW,2013-08-06 08:01:00,
2013-08-06 04:06:00,65.3,56.8,30.00,SW,225,0.0,0.0,74,0.00,,,0.00,WUHU216HW,2013-08-06 08:06:00,
2013-08-06 04:11:00,65.3,56.8,30.00,SW,225,0.0,0.0,74,0.00,,,0.00,WUHU216HW,2013-08-06 08:11:00,
2013-08-06 04:16:00,65.2,56.7,30.00,SW,225,0.0,0.0,74,0.00,,,0.00,WUHU216HW,2013-08-06 08:16:00,
2013-08-06 04:21:00,65.2,56.7,30.00,SW,225,0.0,0.0,74,0.00,,,0.00,WUHU216HW,2013-08-06 08:21:00,
2013-08-06 04:26:00,65.0,56.5,30.00,SW,225,0.0,0.0,74,0.00,,,0.00,WUHU216HW,2013-08-06 08:26:00,
2013-08-06 04:31:00,64.8,56.4,30.00,SW,225,0.0,0.0,74,0.00,,,0.00,WUHU216HW,2013-08-06 08:31:00,
2013-08-06 04:36:00,64.8,56.4,30.00,SW,225,0.4,0.4,74,0.00,,,0.00,WUHU216HW,2013-08-06 08:36:00,
2013-08-06 04:41:00,64.6,56.5,30.01,SW,225,0.0,0.4,75,0.00,,,0.00,WUHU216HW,2013-08-06 08:41:00,
2013-08-06 04:46:00,64.4,56.3,30.00,SW,225,0.0,0.4,75,0.00,,,0.00,WUHU216HW,2013-08-06 08:46:00,
2013-08-06 04:51:00,64.4,56.3,30.01,SW,225,0.2,0.4,75,0.00,,,0.00,WUHU216HW,2013-08-06 08:51:00,
2013-08-06 04:56:00,64.3,56.2,30.01,SW,225,0.0,0.7,75,0.00,,,0.00,WUHU216HW,2013-08-06 08:56:00,
2013-08-06 05:01:00,64.3,56.2,30.01,SW,225,0.4,0.7,75,0.00,,,0.00,WUHU216HW,2013-08-06 09:01:00,
2013-08-06 05:06:00,64.1,56.0,30.01,SW,225,0.0,0.4,75,0.00,,,0.00,WUHU216HW,2013-08-06 09:06:00,
2013-08-06 05:11:00,64.1,55.6,30.01,SW,225,0.0,0.4,74,0.00,,,0.00,WUHU216HW,2013-08-06 09:11:00,
2013-08-06 05:16:00,63.9,55.4,30.01,SW,225,0.0,0.4,74,0.00,,,0.00,WUHU216HW,2013-08-06 09:16:00,
2013-08-06 05:21:00,63.9,55.4,30.01,SW,225,0.2,0.4,74,0.00,,,0.00,WUHU216HW,2013-08-06 09:21:00,
2013-08-06 05:26:00,63.7,55.3,30.01,SW,225,0.0,0.4,74,0.00,,,0.00,WUHU216HW,2013-08-06 09:26:00,
2013-08-06 05:31:00,63.7,55.3,30.01,WSW,248,0.7,1.6,74,0.00,,,0.00,WUHU216HW,2013-08-06 09:31:00,
2013-08-06 05:36:00,63.5,55.1,30.01,WSW,248,0.0,1.6,74,0.00,,,0.00,WUHU216HW,2013-08-06 09:36:00,
2013-08-06 05:41:00,63.5,55.1,30.01,WSW,248,0.2,0.7,74,0.00,,,0.00,WUHU216HW,2013-08-06 09:41:00,
2013-08-06 05:46:00,63.4,54.9,30.01,SW,225,0.4,0.4,74,0.00,,,0.00,WUHU216HW,2013-08-06 09:46:00,
2013-08-06 05:51:00,63.4,54.9,30.02,SW,225,0.7,0.7,74,0.00,,,0.00,WUHU216HW,2013-08-06 09:51:00,
2013-08-06 05:56:00,63.4,54.9,30.02,WSW,248,0.0,0.9,74,0.00,,,0.00,WUHU216HW,2013-08-06 09:56:00,
2013-08-06 06:01:00,63.2,54.7,30.02,WSW,248,0.0,0.9,74,0.00,,,0.00,WUHU216HW,2013-08-06 10:01:00,
2013-08-06 06:06:00,63.2,54.7,30.02,West,270,0.4,1.8,74,0.00,,,0.00,WUHU216HW,2013-08-06 10:06:00,
2013-08-06 06:11:00,63.0,54.5,30.02,WSW,248,0.4,1.8,74,0.00,,,0.00,WUHU216HW,2013-08-06 10:11:00,
2013-08-06 06:16:00,63.2,54.7,30.02,WSW,248,0.9,2.2,74,0.00,,,0.00,WUHU216HW,2013-08-06 10:16:00,
2013-08-06 06:21:00,63.2,54.7,30.02,WSW,248,0.0,2.2,74,0.00,,,0.00,WUHU216HW,2013-08-06 10:21:00,
2013-08-06 06:26:00,63.5,55.1,30.02,WSW,248,0.7,0.9,74,0.00,,,0.00,WUHU216HW,2013-08-06 10:26:00,
2013-08-06 06:31:00,63.5,55.1,30.02,WSW,248,1.6,1.6,74,0.00,,,0.00,WUHU216HW,2013-08-06 10:31:00,
2013-08-06 06:36:00,63.7,55.3,30.02,WSW,248,0.9,1.6,74,0.00,,,0.00,WUHU216HW,2013-08-06 10:36:00,
2013-08-06 06:41:00,63.7,55.3,30.02,WSW,248,1.1,1.3,74,0.00,,,0.00,WUHU216HW,2013-08-06 10:41:00,
2013-08-06 06:46:00,63.9,55.4,30.02,WSW,248,0.7,1.1,74,0.00,,,0.00,WUHU216HW,2013-08-06 10:46:00,
2013-08-06 06:51:00,64.1,55.6,30.02,WSW,248,1.3,1.3,74,0.00,,,0.00,WUHU216HW,2013-08-06 10:51:00,
2013-08-06 06:56:00,64.3,55.8,30.02,WSW,248,0.2,1.8,74,0.00,,,0.00,WUHU216HW,2013-08-06 10:56:00,
2013-08-06 07:01:00,64.4,56.0,30.02,SW,225,0.7,1.8,74,0.00,,,0.00,WUHU216HW,2013-08-06 11:01:00,
2013-08-06 07:06:00,64.8,56.4,30.02,West,270,0.9,1.8,74,0.00,,,0.00,WUHU216HW,2013-08-06 11:06:00,
2013-08-06 07:11:00,65.0,56.5,30.02,WSW,248,0.4,1.8,74,0.00,,,0.00,WUHU216HW,2013-08-06 11:11:00,
2013-08-06 07:16:00,65.3,56.4,30.02,WSW,248,1.1,1.1,73,0.00,,,0.00,WUHU216HW,2013-08-06 11:16:00,
2013-08-06 07:21:00,65.7,56.8,30.02,WSW,248,0.7,1.1,73,0.00,,,0.00,WUHU216HW,2013-08-06 11:21:00,
2013-08-06 07:26:00,65.9,57.0,30.02,WSW,248,1.1,1.6,73,0.00,,,0.00,WUHU216HW,2013-08-06 11:26:00,
2013-08-06 07:31:00,66.1,56.8,30.02,West,270,1.1,1.6,72,0.00,,,0.00,WUHU216HW,2013-08-06 11:31:00,
2013-08-06 07:36:00,66.2,56.9,30.02,NW,315,2.0,2.0,72,0.00,,,0.00,WUHU216HW,2013-08-06 11:36:00,
2013-08-06 07:41:00,66.4,56.7,30.02,NW,315,0.9,3.1,71,0.00,,,0.00,WUHU216HW,2013-08-06 11:41:00,
2013-08-06 07:46:00,66.6,56.9,30.02,NW,315,0.9,3.1,71,0.00,,,0.00,WUHU216HW,2013-08-06 11:46:00,
2013-08-06 07:51:00,66.6,56.5,30.02,WNW,293,2.5,2.5,70,0.00,,,0.00,WUHU216HW,2013-08-06 11:51:00,
2013-08-06 07:56:00,66.8,56.7,30.02,NW,315,1.6,2.5,70,0.00,,,0.00,WUHU216HW,2013-08-06 11:56:00,
2013-08-06 08:01:00,67.1,57.1,30.02,NW,315,1.1,2.2,70,0.00,,,0.00,WUHU216HW,2013-08-06 12:01:00,
2013-08-06 08:06:00,67.3,56.8,30.02,NW,315,1.6,1.6,69,0.00,,,0.00,WUHU216HW,2013-08-06 12:06:00,
2013-08-06 08:11:00,67.7,57.2,30.03,NW,315,1.1,2.7,69,0.00,,,0.00,WUHU216HW,2013-08-06 12:11:00,
2013-08-06 08:16:00,68.0,57.1,30.03,WNW,293,1.8,3.4,68,0.00,,,0.00,WUHU216HW,2013-08-06 12:16:00,
2013-08-06 08:21:00,68.0,57.1,30.03,WNW,293,0.4,3.4,68,0.00,,,0.00,WUHU216HW,2013-08-06 12:21:00,
2013-08-06 08:26:00,68.6,57.2,30.03,NE,45,0.2,1.6,67,0.00,,,0.00,WUHU216HW,2013-08-06 12:26:00,
2013-08-06 08:31:00,68.9,57.1,30.03,WNW,293,0.4,2.7,66,0.00,,,0.00,WUHU216HW,2013-08-06 12:31:00,
2013-08-06 08:36:00,69.1,56.8,30.03,NNE,23,0.7,2.7,65,0.00,,,0.00,WUHU216HW,2013-08-06 12:36:00,
2013-08-06 08:41:00,69.7,57.3,30.03,NNE,23,2.0,2.5,65,0.00,,,0.00,WUHU216HW,2013-08-06 12:41:00,
2013-08-06 08:46:00,70.4,58.1,30.03,ENE,68,0.4,2.0,65,0.00,,,0.00,WUHU216HW,2013-08-06 12:46:00,
2013-08-06 08:51:00,70.7,58.3,30.03,ENE,68,0.4,1.8,65,0.00,,,0.00,WUHU216HW,2013-08-06 12:51:00,
2013-08-06 08:56:00,70.9,58.5,30.03,NE,45,1.8,2.9,65,0.00,,,0.00,WUHU216HW,2013-08-06 12:56:00,
2013-08-06 09:01:00,71.3,59.3,30.03,East,90,1.3,2.9,66,0.00,,,0.00,WUHU216HW,2013-08-06 13:01:00,
2013-08-06 09:06:00,72.0,60.0,30.03,NE,45,1.1,3.4,66,0.00,,,0.00,WUHU216HW,2013-08-06 13:06:00,
2013-08-06 09:11:00,72.7,59.8,30.04,ESE,113,0.4,3.4,64,0.00,,,0.00,WUHU216HW,2013-08-06 13:11:00,
2013-08-06 09:16:00,73.4,60.9,30.04,ENE,68,4.0,5.1,65,0.00,,,0.00,WUHU216HW,2013-08-06 13:16:00,
2013-08-06 09:21:00,74.3,61.4,30.04,East,90,0.7,5.1,64,0.00,,,0.00,WUHU216HW,2013-08-06 13:21:00,
2013-08-06 09:26:00,75.1,61.6,30.04,NNE,23,1.1,3.8,63,0.00,,,0.00,WUHU216HW,2013-08-06 13:26:00,
2013-08-06 09:31:00,75.6,61.7,30.04,NNE,23,2.0,3.4,62,0.00,,,0.00,WUHU216HW,2013-08-06 13:31:00,
2013-08-06 09:36:00,76.3,61.9,30.05,NE,45,1.6,3.4,61,0.00,,,0.00,WUHU216HW,2013-08-06 13:36:00,
2013-08-06 09:41:00,76.1,60.8,30.05,NE,45,1.1,2.9,59,0.00,,,0.00,WUHU216HW,2013-08-06 13:41:00,
2013-08-06 09:46:00,76.7,61.3,30.05,NE,45,2.2,2.9,59,0.00,,,0.00,WUHU216HW,2013-08-06 13:46:00,
2013-08-06 09:51:00,77.4,61.5,30.05,NE,45,3.4,3.4,58,0.00,,,0.00,WUHU216HW,2013-08-06 13:51:00,
2013-08-06 09:56:00,77.6,60.6,30.05,NNE,23,2.5,3.4,56,0.00,,,0.00,WUHU216HW,2013-08-06 13:56:00,
2013-08-06 10:01:00,77.4,60.4,30.05,NE,45,1.8,4.7,56,0.00,,,0.00,WUHU216HW,2013-08-06 14:01:00,
2013-08-06 10:06:00,77.2,60.3,30.05,NE,45,0.9,4.7,56,0.00,,,0.00,WUHU216HW,2013-08-06 14:06:00,
2013-08-06 10:11:00,77.2,60.8,30.05,NNE,23,3.6,3.6,57,0.00,,,0.00,WUHU216HW,2013-08-06 14:11:00,
2013-08-06 10:16:00,77.4,60.4,30.05,SSE,158,1.3,3.6,56,0.00,,,0.00,WUHU216HW,2013-08-06 14:16:00,
2013-08-06 10:21:00,77.4,60.0,30.06,East,90,1.1,3.6,55,0.00,,,0.00,WUHU216HW,2013-08-06 14:21:00,
2013-08-06 10:26:00,77.6,59.0,30.06,ENE,68,1.1,4.0,53,0.00,,,0.00,WUHU216HW,2013-08-06 14:26:00,
2013-08-06 10:31:00,77.2,58.8,30.06,SSE,158,1.8,4.0,53,0.00,,,0.00,WUHU216HW,2013-08-06 14:31:00,
2013-08-06 10:36:00,77.2,58.8,30.06,East,90,2.5,3.4,53,0.00,,,0.00,WUHU216HW,2013-08-06 14:36:00,
2013-08-06 10:41:00,77.2,59.2,30.06,ENE,68,2.9,3.4,54,0.00,,,0.00,WUHU216HW,2013-08-06 14:41:00,
2013-08-06 10:46:00,77.2,59.8,30.06,South,180,1.8,2.9,55,0.00,,,0.00,WUHU216HW,2013-08-06 14:46:00,
2013-08-06 10:51:00,77.2,59.2,30.06,SE,135,1.8,2.9,54,0.00,,,0.00,WUHU216HW,2013-08-06 14:51:00,
2013-08-06 10:56:00,77.0,58.1,30.05,SE,135,0.9,2.9,52,0.00,,,0.00,WUHU216HW,2013-08-06 14:56:00,
2013-08-06 11:01:00,77.0,58.6,30.05,East,90,0.2,4.3,53,0.00,,,0.00,WUHU216HW,2013-08-06 15:01:00,
2013-08-06 11:06:00,76.7,58.2,30.06,SSW,203,1.3,4.3,53,0.00,,,0.00,WUHU216HW,2013-08-06 15:06:00,
2013-08-06 11:11:00,76.9,59.0,30.06,NE,45,0.7,4.0,54,0.00,,,0.00,WUHU216HW,2013-08-06 15:11:00,
2013-08-06 11:16:00,76.7,59.2,30.06,SSE,158,1.8,4.0,55,0.00,,,0.00,WUHU216HW,2013-08-06 15:16:00,
2013-08-06 11:21:00,76.7,60.3,30.06,ENE,68,3.4,3.4,57,0.00,,,0.00,WUHU216HW,2013-08-06 15:21:00,
2013-08-06 11:26:00,77.2,61.3,30.06,South,180,0.7,3.4,58,0.00,,,0.00,WUHU216HW,2013-08-06 15:26:00,
2013-08-06 11:31:00,77.4,60.4,30.06,East,90,3.1,4.3,56,0.00,,,0.00,WUHU216HW,2013-08-06 15:31:00,
2013-08-06 11:36:00,77.2,61.3,30.06,ESE,113,2.5,4.3,58,0.00,,,0.00,WUHU216HW,2013-08-06 15:36:00,
2013-08-06 11:41:00,77.2,61.3,30.06,East,90,3.1,3.1,58,0.00,,,0.00,WUHU216HW,2013-08-06 15:41:00,
2013-08-06 11:46:00,77.2,60.8,30.07,SSE,158,1.8,3.1,57,0.00,,,0.00,WUHU216HW,2013-08-06 15:46:00,
2013-08-06 11:51:00,77.4,61.5,30.07,SSE,158,2.5,3.1,58,0.00,,,0.00,WUHU216HW,2013-08-06 15:51:00,
2013-08-06 11:56:00,77.6,60.6,30.06,East,90,3.1,3.1,56,0.00,,,0.00,WUHU216HW,2013-08-06 15:56:00,
2013-08-06 12:01:00,77.8,60.8,30.07,ENE,68,1.6,3.8,56,0.00,,,0.00,WUHU216HW,2013-08-06 16:01:00,
2013-08-06 12:06:00,77.6,61.1,30.07,NE,45,5.8,5.8,57,0.00,,,0.00,WUHU216HW,2013-08-06 16:06:00,
2013-08-06 12:11:00,77.4,61.5,30.07,SE,135,2.2,5.8,58,0.00,,,0.00,WUHU216HW,2013-08-06 16:11:00,
2013-08-06 12:16:00,77.4,61.5,30.07,NE,45,4.0,4.0,58,0.00,,,0.00,WUHU216HW,2013-08-06 16:16:00,
2013-08-06 12:21:00,77.4,60.9,30.07,East,90,2.2,4.0,57,0.00,,,0.00,WUHU216HW,2013-08-06 16:21:00,
2013-08-06 12:26:00,77.8,61.3,30.07,South,180,1.1,4.0,57,0.00,,,0.00,WUHU216HW,2013-08-06 16:26:00,
2013-08-06 12:31:00,78.1,61.7,30.08,South,180,1.8,3.1,57,0.00,,,0.00,WUHU216HW,2013-08-06 16:31:00,
2013-08-06 12:36:00,78.7,61.7,30.08,SSE,158,1.8,3.4,56,0.00,,,0.00,WUHU216HW,2013-08-06 16:36:00,
2013-08-06 12:41:00,79.0,62.0,30.08,SSW,203,0.9,3.4,56,0.00,,,0.00,WUHU216HW,2013-08-06 16:41:00,
2013-08-06 12:46:00,79.6,62.5,30.08,South,180,2.5,3.4,56,0.00,,,0.00,WUHU216HW,2013-08-06 16:46:00,
2013-08-06 12:51:00,79.6,61.9,30.08,SE,135,0.9,3.4,55,0.00,,,0.00,WUHU216HW,2013-08-06 16:51:00,
2013-08-06 12:56:00,79.6,61.4,30.08,SSE,158,1.1,4.0,54,0.00,,,0.00,WUHU216HW,2013-08-06 16:56:00,
2013-08-06 13:01:00,79.4,61.7,30.08,SSE,158,1.3,4.3,55,0.00,,,0.00,WUHU216HW,2013-08-06 17:01:00,
2013-08-06 13:06:00,79.6,61.9,30.08,East,90,1.3,4.3,55,0.00,,,0.00,WUHU216HW,2013-08-06 17:06:00,
2013-08-06 13:11:00,79.2,60.6,30.07,East,90,1.1,6.3,53,0.00,,,0.00,WUHU216HW,2013-08-06 17:11:00,
2013-08-06 13:16:00,78.8,60.2,30.07,SSW,203,0.9,6.3,53,0.00,,,0.00,WUHU216HW,2013-08-06 17:16:00,
2013-08-06 13:21:00,78.8,60.8,30.07,SSW,203,3.8,6.3,54,0.00,,,0.00,WUHU216HW,2013-08-06 17:21:00,
2013-08-06 13:26:00,79.2,61.1,30.07,SSW,203,2.0,6.3,54,0.00,,,0.00,WUHU216HW,2013-08-06 17:26:00,
2013-08-06 13:27:00,79.2,61.1,30.07,SSW,203,2.0,6.3,54,0.00,,,0.00,WUHU216HW,2013-08-06 17:27:00,
2013-08-06 13:32:00,79.6,61.4,30.07,SE,135,2.9,3.4,54,0.00,,,0.00,WUHU216HW,2013-08-06 17:32:00,
2013-08-06 13:37:00,79.9,60.7,30.06,SSE,158,2.0,3.1,52,0.00,,,0.00,WUHU216HW,2013-08-06 17:37:00,
2013-08-06 13:42:00,79.6,59.3,30.07,SE,135,2.5,3.1,50,0.00,,,0.00,WUHU216HW,2013-08-06 17:42:00,
2013-08-06 13:47:00,79.6,59.9,30.06,SSW,203,3.4,3.4,51,0.00,,,0.00,WUHU216HW,2013-08-06 17:47:00,
2013-08-06 13:52:00,79.6,59.9,30.07,ESE,113,1.8,3.4,51,0.00,,,0.00,WUHU216HW,2013-08-06 17:52:00,
2013-08-06 13:57:00,79.6,60.9,30.07,South,180,6.3,6.3,53,0.00,,,0.00,WUHU216HW,2013-08-06 17:57:00,
2013-08-06 14:02:00,79.9,61.2,30.07,SE,135,3.6,6.5,53,0.00,,,0.00,WUHU216HW,2013-08-06 18:02:00,
2013-08-06 14:07:00,80.1,60.8,30.07,SE,135,3.4,6.5,52,0.00,,,0.00,WUHU216HW,2013-08-06 18:07:00,
2013-08-06 14:12:00,80.1,61.4,30.08,SSW,203,3.4,6.0,53,0.00,,,0.00,WUHU216HW,2013-08-06 18:12:00,
2013-08-06 14:17:00,80.5,61.8,30.07,South,180,4.7,5.1,53,0.00,,,0.00,WUHU216HW,2013-08-06 18:17:00,
2013-08-06 14:22:00,80.3,61.6,30.07,SSE,158,6.7,6.7,53,0.00,,,0.00,WUHU216HW,2013-08-06 18:22:00,
2013-08-06 14:27:00,80.3,61.6,30.07,SSE,158,1.3,6.7,53,0.00,,,0.00,WUHU216HW,2013-08-06 18:27:00,
2013-08-06 14:32:00,80.3,62.1,30.07,SE,135,4.5,5.6,54,0.00,,,0.00,WUHU216HW,2013-08-06 18:32:00,
2013-08-06 14:37:00,79.9,61.7,30.06,ESE,113,3.6,5.6,54,0.00,,,0.00,WUHU216HW,2013-08-06 18:37:00,
2013-08-06 14:42:00,80.1,61.9,30.06,SSE,158,2.7,6.3,54,0.00,,,0.00,WUHU216HW,2013-08-06 18:42:00,
2013-08-06 14:47:00,80.3,61.6,30.06,SSE,158,4.7,6.3,53,0.00,,,0.00,WUHU216HW,2013-08-06 18:47:00,
2013-08-06 14:52:00,80.5,61.8,30.06,South,180,6.3,6.5,53,0.00,,,0.00,WUHU216HW,2013-08-06 18:52:00,
2013-08-06 14:57:00,80.5,61.8,30.07,ESE,113,3.1,6.5,53,0.00,,,0.00,WUHU216HW,2013-08-06 18:57:00,
2013-08-06 15:02:00,79.9,61.2,30.07,SSW,203,2.5,6.3,53,0.00,,,0.00,WUHU216HW,2013-08-06 19:02:00,
2013-08-06 15:07:00,79.6,60.9,30.07,East,90,2.2,6.3,53,0.00,,,0.00,WUHU216HW,2013-08-06 19:07:00,
2013-08-06 15:12:00,79.4,61.3,30.07,ENE,68,1.8,4.5,54,0.00,,,0.00,WUHU216HW,2013-08-06 19:12:00,
2013-08-06 15:17:00,79.2,61.1,30.06,SSE,158,4.0,4.5,54,0.00,,,0.00,WUHU216HW,2013-08-06 19:17:00,
2013-08-06 15:22:00,79.0,60.9,30.06,SSE,158,1.6,4.3,54,0.00,,,0.00,WUHU216HW,2013-08-06 19:22:00,
2013-08-06 15:27:00,79.0,60.4,30.06,East,90,1.8,3.8,53,0.00,,,0.00,WUHU216HW,2013-08-06 19:27:00,
2013-08-06 15:32:00,78.8,60.8,30.06,South,180,4.7,5.4,54,0.00,,,0.00,WUHU216HW,2013-08-06 19:32:00,
2013-08-06 15:37:00,79.0,60.9,30.06,East,90,3.8,6.9,54,0.00,,,0.00,WUHU216HW,2013-08-06 19:37:00,
2013-08-06 15:42:00,79.2,61.1,30.06,SE,135,7.6,7.6,54,0.00,,,0.00,WUHU216HW,2013-08-06 19:42:00,
2013-08-06 15:47:00,79.2,61.1,30.06,South,180,3.8,7.6,54,0.00,,,0.00,WUHU216HW,2013-08-06 19:47:00,
2013-08-06 15:52:00,79.2,61.1,30.06,SE,135,2.5,5.4,54,0.00,,,0.00,WUHU216HW,2013-08-06 19:52:00,
2013-08-06 15:57:00,79.2,60.6,30.06,South,180,2.5,4.9,53,0.00,,,0.00,WUHU216HW,2013-08-06 19:57:00,
2013-08-06 16:02:00,79.4,60.8,30.06,SSE,158,5.1,8.7,53,0.00,,,0.00,WUHU216HW,2013-08-06 20:02:00,
2013-08-06 16:07:00,79.4,60.2,30.06,SE,135,4.3,8.7,52,0.00,,,0.00,WUHU216HW,2013-08-06 20:07:00,
2013-08-06 16:12:00,79.4,60.8,30.06,SSE,158,4.3,4.5,53,0.00,,,0.00,WUHU216HW,2013-08-06 20:12:00,
2013-08-06 16:17:00,79.4,60.8,30.06,SSE,158,3.1,5.6,53,0.00,,,0.00,WUHU216HW,2013-08-06 20:17:00,
2013-08-06 16:22:00,79.6,60.9,30.06,SE,135,1.6,5.6,53,0.00,,,0.00,WUHU216HW,2013-08-06 20:22:00,
2013-08-06 16:27:00,79.4,60.8,30.06,SSE,158,2.5,3.6,53,0.00,,,0.00,WUHU216HW,2013-08-06 20:27:00,
2013-08-06 16:32:00,79.2,60.6,30.06,SSE,158,2.2,3.6,53,0.00,,,0.00,WUHU216HW,2013-08-06 20:32:00,
2013-08-06 16:37:00,78.8,60.8,30.06,SE,135,3.4,6.9,54,0.00,,,0.00,WUHU216HW,2013-08-06 20:37:00,
2013-08-06 16:42:00,78.5,60.4,30.06,ESE,113,2.5,6.9,54,0.00,,,0.00,WUHU216HW,2013-08-06 20:42:00,
2013-08-06 16:47:00,78.3,60.3,30.06,South,180,5.1,5.4,54,0.00,,,0.00,WUHU216HW,2013-08-06 20:47:00,
2013-08-06 16:52:00,78.1,60.1,30.06,ESE,113,4.3,5.4,54,0.00,,,0.00,WUHU216HW,2013-08-06 20:52:00,
2013-08-06 16:57:00,77.9,60.5,30.06,South,180,2.5,4.3,55,0.00,,,0.00,WUHU216HW,2013-08-06 20:57:00,
2013-08-06 17:02:00,77.8,60.3,30.06,SSE,158,5.8,5.8,55,0.00,,,0.00,WUHU216HW,2013-08-06 21:02:00,
2013-08-06 17:07:00,77.8,60.8,30.06,SE,135,0.9,7.4,56,0.00,,,0.00,WUHU216HW,2013-08-06 21:07:00,
2013-08-06 17:12:00,77.6,60.6,30.07,SSE,158,2.5,7.4,56,0.00,,,0.00,WUHU216HW,2013-08-06 21:12:00,
2013-08-06 17:17:00,77.6,60.6,30.07,SSW,203,4.9,6.3,56,0.00,,,0.00,WUHU216HW,2013-08-06 21:17:00,
2013-08-06 17:22:00,77.4,60.4,30.07,SSE,158,1.3,6.3,56,0.00,,,0.00,WUHU216HW,2013-08-06 21:22:00,
2013-08-06 17:27:00,77.2,60.3,30.07,SE,135,1.8,3.8,56,0.00,,,0.00,WUHU216HW,2013-08-06 21:27:00,
2013-08-06 17:32:00,77.0,60.1,30.07,SE,135,2.5,4.9,56,0.00,,,0.00,WUHU216HW,2013-08-06 21:32:00,
2013-08-06 17:37:00,77.0,60.1,30.07,SSE,158,5.4,5.4,56,0.00,,,0.00,WUHU216HW,2013-08-06 21:37:00,
2013-08-06 17:42:00,77.0,60.6,30.07,SSE,158,4.3,5.4,57,0.00,,,0.00,WUHU216HW,2013-08-06 21:42:00,
2013-08-06 17:47:00,77.0,60.6,30.06,ESE,113,2.9,4.7,57,0.00,,,0.00,WUHU216HW,2013-08-06 21:47:00,
2013-08-06 17:52:00,77.2,60.8,30.06,SE,135,1.8,5.4,57,0.00,,,0.00,WUHU216HW,2013-08-06 21:52:00,
2013-08-06 17:57:00,77.2,60.8,30.06,SSE,158,1.6,5.4,57,0.00,,,0.00,WUHU216HW,2013-08-06 21:57:00,
2013-08-06 18:02:00,77.0,60.6,30.06,SSE,158,0.4,4.0,57,0.00,,,0.00,WUHU216HW,2013-08-06 22:02:00,
2013-08-06 18:07:00,77.0,61.1,30.06,SSE,158,4.7,4.7,58,0.00,,,0.00,WUHU216HW,2013-08-06 22:07:00,
2013-08-06 18:12:00,77.0,61.1,30.06,SSE,158,0.9,4.7,58,0.00,,,0.00,WUHU216HW,2013-08-06 22:12:00,
2013-08-06 18:17:00,77.0,61.1,30.06,South,180,2.2,3.6,58,0.00,,,0.00,WUHU216HW,2013-08-06 22:17:00,
2013-08-06 18:22:00,76.9,61.5,30.06,SE,135,1.8,3.4,59,0.00,,,0.00,WUHU216HW,2013-08-06 22:22:00,
2013-08-06 18:27:00,76.7,61.3,30.07,SSE,158,0.9,4.0,59,0.00,,,0.00,WUHU216HW,2013-08-06 22:27:00,
2013-08-06 18:32:00,76.7,61.3,30.07,South,180,3.8,4.0,59,0.00,,,0.00,WUHU216HW,2013-08-06 22:32:00,
2013-08-06 18:37:00,76.5,61.7,30.07,SSE,158,2.9,5.1,60,0.00,,,0.00,WUHU216HW,2013-08-06 22:37:00,
2013-08-06 18:42:00,76.3,61.5,30.07,SSW,203,3.1,5.1,60,0.00,,,0.00,WUHU216HW,2013-08-06 22:42:00,
2013-08-06 18:47:00,76.1,61.3,30.08,SSW,203,4.3,4.3,60,0.00,,,0.00,WUHU216HW,2013-08-06 22:47:00,
2013-08-06 18:52:00,75.8,61.4,30.07,SSE,158,4.5,4.5,61,0.00,,,0.00,WUHU216HW,2013-08-06 22:52:00,
2013-08-06 18:57:00,75.6,61.2,30.07,SSE,158,1.1,4.5,61,0.00,,,0.00,WUHU216HW,2013-08-06 22:57:00,
2013-08-06 19:02:00,75.2,60.9,30.07,SSE,158,0.9,2.2,61,0.00,,,0.00,WUHU216HW,2013-08-06 23:02:00,
2013-08-06 19:07:00,75.2,61.4,30.07,SSE,158,3.8,3.8,62,0.00,,,0.00,WUHU216HW,2013-08-06 23:07:00,
2013-08-06 19:12:00,75.2,61.4,30.07,SSE,158,1.8,3.8,62,0.00,,,0.00,WUHU216HW,2013-08-06 23:12:00,
2013-08-06 19:17:00,75.1,61.2,30.07,South,180,1.8,3.1,62,0.00,,,0.00,WUHU216HW,2013-08-06 23:17:00,
2013-08-06 19:21:00,74.9,61.0,30.07,SSE,158,3.4,4.0,62,0.00,,,0.00,WUHU216HW,2013-08-06 23:21:00,
2013-08-06 19:26:00,74.9,61.0,30.07,SSE,158,1.3,4.0,62,0.00,,,0.00,WUHU216HW,2013-08-06 23:26:00,
2013-08-06 19:31:00,74.7,61.3,30.07,SSE,158,2.5,4.0,63,0.00,,,0.00,WUHU216HW,2013-08-06 23:31:00,
2013-08-06 19:36:00,74.7,61.3,30.07,SSE,158,2.0,4.0,63,0.00,,,0.00,WUHU216HW,2013-08-06 23:36:00,
2013-08-06 19:41:00,74.5,61.1,30.07,ESE,113,2.7,2.7,63,0.00,,,0.00,WUHU216HW,2013-08-06 23:41:00,
2013-08-06 19:46:00,74.5,61.1,30.07,SSE,158,1.3,3.6,63,0.00,,,0.00,WUHU216HW,2013-08-06 23:46:00,
2013-08-06 19:52:00,74.3,60.9,30.07,South,180,1.8,3.6,63,0.00,,,0.00,WUHU216HW,2013-08-06 23:52:00,
2013-08-06 19:56:00,74.2,61.2,30.07,SSE,158,0.4,3.4,64,0.00,,,0.00,WUHU216HW,2013-08-06 23:56:00,
2013-08-06 20:01:00,74.2,61.2,30.07,SSE,158,2.0,4.5,64,0.00,,,0.00,WUHU216HW,2013-08-07 00:01:00,
2013-08-06 20:06:00,74.2,61.2,30.07,SSE,158,2.7,4.5,64,0.00,,,0.00,WUHU216HW,2013-08-07 00:06:00,
2013-08-06 20:11:00,74.0,61.0,30.08,SSE,158,2.5,2.7,64,0.00,,,0.00,WUHU216HW,2013-08-07 00:11:00,
2013-08-06 20:16:00,74.0,61.5,30.07,South,180,1.1,2.9,65,0.00,,,0.00,WUHU216HW,2013-08-07 00:16:00,
2013-08-06 20:21:00,73.8,61.3,30.07,SSE,158,2.5,3.4,65,0.00,,,0.00,WUHU216HW,2013-08-07 00:21:00,
2013-08-06 20:26:00,73.8,61.3,30.08,SSE,158,1.8,3.4,65,0.00,,,0.00,WUHU216HW,2013-08-07 00:26:00,
2013-08-06 20:31:00,73.8,61.3,30.08,SSE,158,1.8,2.2,65,0.00,,,0.00,WUHU216HW,2013-08-07 00:31:00,
2013-08-06 20:36:00,73.8,61.3,30.07,SE,135,3.1,3.1,65,0.00,,,0.00,WUHU216HW,2013-08-07 00:36:00,
2013-08-06 20:41:00,73.8,61.3,30.07,SSE,158,1.1,3.1,65,0.00,,,0.00,WUHU216HW,2013-08-07 00:41:00,
2013-08-06 20:46:00,73.6,61.6,30.08,SSE,158,1.3,2.0,66,0.00,,,0.00,WUHU216HW,2013-08-07 00:46:00,
2013-08-06 20:51:00,73.6,61.6,30.08,SSE,158,1.8,2.2,66,0.00,,,0.00,WUHU216HW,2013-08-07 00:51:00,
2013-08-06 20:56:00,73.6,61.6,30.08,SE,135,1.1,4.3,66,0.00,,,0.00,WUHU216HW,2013-08-07 00:56:00,
2013-08-06 21:02:00,73.6,61.6,30.07,SSE,158,1.6,4.3,66,0.00,,,0.00,WUHU216HW,2013-08-07 01:02:00,
2013-08-06 21:06:00,73.4,61.4,30.07,SSE,158,0.7,1.6,66,0.00,,,0.00,WUHU216HW,2013-08-07 01:06:00,
2013-08-06 21:11:00,73.4,61.4,30.07,SSE,158,0.2,1.1,66,0.00,,,0.00,WUHU216HW,2013-08-07 01:11:00,
2013-08-06 21:17:00,73.4,61.4,30.07,SSE,158,1.1,2.5,66,0.00,,,0.00,WUHU216HW,2013-08-07 01:17:00,
2013-08-06 21:22:00,73.4,61.8,30.07,South,180,1.3,2.5,67,0.00,,,0.00,WUHU216HW,2013-08-07 01:22:00,
2013-08-06 21:27:00,73.4,61.8,30.08,SSE,158,0.9,2.0,67,0.00,,,0.00,WUHU216HW,2013-08-07 01:27:00,
2013-08-06 21:32:00,73.4,61.8,30.08,SSE,158,0.7,2.7,67,0.00,,,0.00,WUHU216HW,2013-08-07 01:32:00,
2013-08-06 21:37:00,73.3,61.7,30.08,South,180,0.9,2.7,67,0.00,,,0.00,WUHU216HW,2013-08-07 01:37:00,
2013-08-06 21:42:00,73.3,61.7,30.08,SE,135,0.4,2.5,67,0.00,,,0.00,WUHU216HW,2013-08-07 01:42:00,
2013-08-06 21:47:00,73.4,61.8,30.08,SSE,158,2.5,2.5,67,0.00,,,0.00,WUHU216HW,2013-08-07 01:47:00,
2013-08-06 21:52:00,73.3,61.7,30.08,SSE,158,0.9,2.5,67,0.00,,,0.00,WUHU216HW,2013-08-07 01:52:00,
2013-08-06 21:57:00,73.3,61.7,30.08,SSE,158,2.0,2.5,67,0.00,,,0.00,WUHU216HW,2013-08-07 01:57:00,
2013-08-06 22:02:00,73.3,61.7,30.08,SSE,158,0.7,2.7,67,0.00,,,0.00,WUHU216HW,2013-08-07 02:02:00,
2013-08-06 22:07:00,73.1,61.5,30.08,SSE,158,1.1,2.7,67,0.00,,,0.00,WUHU216HW,2013-08-07 02:07:00,
2013-08-06 22:12:00,73.1,61.5,30.08,SSE,158,1.6,2.2,67,0.00,,,0.00,WUHU216HW,2013-08-07 02:12:00,
2013-08-06 22:17:00,73.1,61.5,30.08,SSE,158,1.3,2.2,67,0.00,,,0.00,WUHU216HW,2013-08-07 02:17:00,
2013-08-06 22:22:00,73.1,61.5,30.08,SSE,158,1.8,1.8,67,0.00,,,0.00,WUHU216HW,2013-08-07 02:22:00,
2013-08-06 22:27:00,73.1,61.5,30.08,SSE,158,0.7,1.8,67,0.00,,,0.00,WUHU216HW,2013-08-07 02:27:00,
2013-08-06 22:32:00,73.1,61.5,30.08,SSE,158,1.8,1.8,67,0.00,,,0.00,WUHU216HW,2013-08-07 02:32:00,
2013-08-06 22:37:00,73.1,61.5,30.08,SSE,158,0.0,1.8,67,0.00,,,0.00,WUHU216HW,2013-08-07 02:37:00,
2013-08-06 22:42:00,73.1,61.9,30.08,SSE,158,0.2,2.0,68,0.00,,,0.00,WUHU216HW,2013-08-07 02:42:00,
2013-08-06 22:47:00,73.1,61.9,30.08,South,180,0.7,2.0,68,0.00,,,0.00,WUHU216HW,2013-08-07 02:47:00,
2013-08-06 22:52:00,72.9,61.7,30.08,SSE,158,0.7,2.7,68,0.00,,,0.00,WUHU216HW,2013-08-07 02:52:00,
2013-08-06 22:57:00,72.9,61.7,30.08,SSE,158,0.9,2.7,68,0.00,,,0.00,WUHU216HW,2013-08-07 02:57:00,
2013-08-06 23:02:00,72.9,62.2,30.08,South,180,0.7,3.1,69,0.00,,,0.00,WUHU216HW,2013-08-07 03:02:00,
2013-08-06 23:07:00,72.9,62.2,30.08,SSE,158,1.1,4.0,69,0.00,,,0.00,WUHU216HW,2013-08-07 03:07:00,
2013-08-06 23:12:00,72.9,62.2,30.08,SSE,158,1.8,4.0,69,0.00,,,0.00,WUHU216HW,2013-08-07 03:12:00,
2013-08-06 23:17:00,72.9,62.2,30.08,SSE,158,2.5,2.5,69,0.00,,,0.00,WUHU216HW,2013-08-07 03:17:00,
2013-08-06 23:22:00,72.9,62.2,30.08,SSE,158,1.8,2.9,69,0.00,,,0.00,WUHU216HW,2013-08-07 03:22:00,
2013-08-06 23:27:00,72.9,62.2,30.08,SSE,158,0.9,2.9,69,0.00,,,0.00,WUHU216HW,2013-08-07 03:27:00,
2013-08-06 23:32:00,72.9,62.2,30.08,SSE,158,1.8,2.7,69,0.00,,,0.00,WUHU216HW,2013-08-07 03:32:00,
2013-08-06 23:37:00,72.9,62.2,30.08,SSE,158,2.5,2.7,69,0.00,,,0.00,WUHU216HW,2013-08-07 03:37:00,
2013-08-06 23:42:00,72.7,62.5,30.08,SE,135,2.7,4.0,70,0.00,,,0.00,WUHU216HW,2013-08-07 03:42:00,
2013-08-06 23:47:00,72.7,62.5,30.08,SSE,158,1.8,4.0,70,0.00,,,0.00,WUHU216HW,2013-08-07 03:47:00,
2013-08-06 23:52:00,72.7,62.5,30.08,SSE,158,0.9,2.5,70,0.00,,,0.00,WUHU216HW,2013-08-07 03:52:00,
2013-08-06 23:57:00,72.7,62.5,30.08,SE,135,0.4,1.3,70,0.00,,,0.00,WUHU216HW,2013-08-07 03:57:00,